[[{"header":{"parameterUnit":"m.s-1","parameterCategory":1,"la1":30.2991,"la2":30.254,"lo1":-89.0895,"lo2":-89.0444,"dy":0.0017,"dx":0.0017,"nx":28,"ny":28,"refTime":"2025-03-28T03:00:00:Z","depth":0,"parameterNumber":2,"parameterNumberName":"U-component_of_WINDS"},"data":[0,0,0,0,0,0,0,0,0,0,0,0,0,0,0,0,0,0,0,0,0,0,0,0,0,0,0,0,0,0,0,0,0,0,0,0,0,0,0,0,0,0,0,0,0,0,0,0,0,0,0,0,0,0,0,0,0,0,-4.6701,-4.6701,0,-4.6782,-4.6783,-4.6784,-4.6772,-4.6771,-4.677,-4.6768,-4.6849,-4.6852,-4.6855,0,0,0,0,0,0,0,0,0,0,0,0,0,-4.6533,-4.6537,-4.67,-4.6702,-4.6703,-4.6782,-4.6783,-4.6784,-4.6773,-4.6771,-4.6769,-4.6768,-4.6848,-4.6852,-4.6856,0,0,0,0,0,0,0,0,0,0,0,0,0,-4.6609,-4.6538,-4.67,-4.6706,-4.6708,-4.6782,-4.6783,-4.6784,-4.6773,-4.6771,-4.6769,-4.6767,-4.6846,-4.6851,-4.6856,-4.6928,0,0,-4.6872,-4.6874,0,0,0,0,0,0,0,0,-4.6605,-4.6616,-4.6705,-4.6706,-4.6708,-4.6765,-4.6753,-4.6832,-4.6773,-4.6748,-4.6768,-4.6766,-4.6822,-4.6829,-4.6849,-4.6932,-4.6935,-4.6872,-4.6875,-4.6878,-4.6879,0,0,0,0,0,0,0,-4.66,-4.6612,-4.6733,-4.6706,-4.6708,-4.6705,-4.6713,-4.6768,-4.6795,-4.675,-4.675,-4.6759,-4.6823,-4.6844,-4.6851,-4.6937,-4.6872,-4.6877,-4.688,-4.6882,-4.7083,-4.7085,0,0,0,0,0,0,-4.6593,-4.6608,-4.673,-4.6735,-4.6651,-4.6709,-4.6719,-4.6749,-4.6795,-4.68,-4.6761,-4.6759,-4.6836,-4.6845,-4.6853,-4.694,-4.6878,-4.6882,-4.6885,-4.7081,-4.7083,-4.7086,0,0,0,0,0,0,-4.659,-4.6604,-4.6727,-4.6671,-4.6687,-4.6714,-4.6748,-4.6751,-4.6772,-4.6803,-4.6808,-4.6778,-4.6835,-4.6846,-4.691,-4.6943,-4.6885,-4.6889,-4.7078,-4.7082,-4.7085,-4.7115,0,0,0,0,0,0,-4.6585,-4.6603,-4.6631,-4.6672,-4.669,-4.6782,-4.675,-4.6754,-4.6782,-4.6779,-4.682,-4.6825,-4.6834,-4.6902,-4.6915,-4.6949,-4.6893,-4.7075,-4.708,-4.7084,-4.7111,-4.7119,-4.7125,0,0,0,0,0,-4.6579,-4.6635,-4.6632,-4.6647,-4.6725,-4.6784,-4.6794,-4.6805,-4.6784,-4.6812,-4.6832,-4.6824,-4.6938,-4.6909,-4.6923,-4.6959,-4.7073,-4.7078,-4.7083,-4.7107,-4.7117,-4.7125,0,0,0,0,0,0,-4.6596,-4.6641,-4.6638,-4.6709,-4.6743,-4.6782,-4.6818,-4.6815,-4.6854,-4.685,-4.6861,-4.687,-4.6934,-4.6953,-4.692,-4.7031,-4.7002,-4.7011,-4.7016,-4.7025,-4.7033,-4.7026,-4.6897,0,0,0,0,0,-4.6608,-4.6653,-4.669,-4.6749,-4.6767,-4.679,-4.6816,-4.6821,-4.6856,-4.687,-4.6895,-4.6928,-4.6972,-4.7,-4.7042,-4.7114,-4.7123,-4.7146,-4.7153,-4.7159,-4.7165,-4.7205,-4.7216,-4.7103,-4.7103,-4.7103,0,0,-4.6634,-4.6664,-4.6691,-4.6754,-4.678,-4.6826,-4.6801,-4.6851,-4.6884,-4.6877,-4.6939,-4.6958,-4.6997,-4.7065,-4.7096,-4.7083,-4.7199,-4.7166,-4.717,-4.7173,-4.7211,-4.7222,-4.7231,-4.7106,-4.7106,-4.7105,0,0,-4.6703,-4.6731,-4.6783,-4.6811,-4.6853,-4.6868,-4.6881,-4.6921,-4.6934,-4.6996,-4.6992,-4.7032,-4.7107,-4.7134,-4.7158,-4.724,-4.7233,-4.7254,-4.7291,-4.7329,-4.7338,-4.7346,-4.7374,-4.7384,-4.726,-4.726,-4.726,0,-4.6728,-4.6798,-4.681,-4.6861,-4.6888,-4.6886,-4.6938,-4.6965,-4.7017,-4.7036,-4.7021,-4.7115,-4.7141,-4.7215,-4.7236,-4.7256,-4.727,-4.7248,-4.7336,-4.7344,-4.7352,-4.7378,-4.7389,-4.7262,-4.7262,-4.7262,-4.7262,0,-4.6827,-4.6875,-4.6913,-4.6965,-4.6997,-4.7048,-4.7068,-4.7099,-4.7102,-4.7119,-4.7183,-4.7214,-4.7262,-4.7281,-4.7284,-4.7356,-4.7346,-4.7334,-4.7304,-4.7364,-4.7389,-4.74,-4.7265,-4.7265,-4.7264,-4.7263,0,0,-4.6906,-4.6967,-4.698,-4.7004,-4.7051,-4.7088,-4.7139,-4.7188,-4.7213,-4.7251,-4.7293,-4.7358,-4.7347,-4.7374,-4.738,-4.7414,-4.7476,-4.7397,-4.7399,-4.741,-4.7557,-4.7565,-4.7577,-4.7473,-4.7475,-4.7477,-4.7553,0,-4.6979,-4.7071,-4.7084,-4.7165,-4.7209,-4.7209,-4.7253,-4.7287,-4.7304,-4.7344,-4.7363,-4.7408,-4.7391,-4.7407,-4.7441,-4.7462,-4.7506,-4.7457,-4.7512,-4.7514,-4.75,-4.759,-4.7599,-4.7669,-4.7564,-4.7565,-4.7567,0,-4.7075,-4.7116,-4.7201,-4.7243,-4.7262,-4.7302,-4.7348,-4.7386,-4.7424,-4.7434,-4.7466,-4.7469,-4.7522,-4.7493,-4.7565,-4.7531,-4.7555,-4.7569,-4.7572,-4.7576,-4.7542,-4.7595,-4.7692,-4.7702,-4.7583,-4.7581,-4.758,0,-4.7123,-4.72,-4.7261,-4.7281,-4.7331,-4.7359,-4.7381,-4.7418,-4.7446,-4.7486,-4.7504,-4.755,-4.7574,-4.7609,-4.7624,-4.7602,-4.7696,-4.7668,-4.7705,-4.7704,-4.7722,-4.7721,-4.7823,-4.7741,-4.7741,-4.7741,-4.7741,0,-4.7202,-4.7253,-4.7283,-4.732,-4.7378,-4.7394,-4.7451,-4.7472,-4.7504,-4.7545,-4.7548,-4.7586,-4.7604,-4.7645,-4.7658,-4.7715,-4.7727,-4.7736,-4.7738,-4.7735,-4.7733,-4.7749,-4.7744,-4.7744,-4.7743,-4.7742,-4.7742,0,-4.7264,-4.7286,-4.7352,-4.7395,-4.7407,-4.7448,-4.7484,-4.752,-4.7538,-4.759,-4.7603,-4.7631,-4.768,-4.7699,-4.7758,-4.7766,-4.7832,-4.7832,-4.782,-4.782,-4.7855,-4.7851,-4.7969,-4.7985,-4.7894,-4.7895,-4.7896,0,-4.7312,-4.7352,-4.7399,-4.7427,-4.7451,-4.7496,-4.7525,-4.7543,-4.7573,-4.762,-4.765,-4.7699,-4.7739,-4.7816,-4.7841,-4.7887,-4.7886,-4.7925,-4.7893,-4.7888,-4.7885,-4.7882,-4.7885,-4.793,-4.7931,-4.7931,-4.7932,0,-4.7394,-4.7403,-4.7446,-4.7493,-4.7528,-4.7566,-4.7602,-4.7625,-4.7648,-4.7682,-4.7732,-4.7763,-4.7825,-4.7873,-4.792,-4.7942,-4.794,-4.7942,-4.7953,-4.7949,-4.794,-4.7944,-4.7834,-4.7939,-4.7938,-4.7938,-4.7937,-4.7937,-4.7449,-4.7485,-4.7524,-4.7572,-4.7602,-4.7636,-4.7672,-4.7695,-4.7738,-4.7789,-4.7797,-4.7851,-4.7889,-4.7952,-4.7976,-4.8018,-4.8008,-4.8023,-4.8027,-4.803,-4.8032,-4.7935,-4.8027,-4.8027,-4.8026,-4.8026,-4.8026,0,-4.753,-4.7556,-4.76,-4.7652,-4.7689,-4.7687,-4.7728,-4.7759,-4.7806,-4.7842,-4.7882,-4.7939,-4.7987,-4.8016,-4.8064,-4.8091,-4.8092,-4.8103,-4.81,-4.8105,-4.8039,-4.8024,-4.8102,-4.8102,-4.8102,-4.8102,-4.8102,-4.8102,-4.7577,-4.7637,-4.7651,-4.7726,-4.7751,-4.7804,-4.7828,-4.7859,-4.7888,-4.7953,-4.7992,-4.8012,-4.8045,-4.8095,-4.8138,-4.8146,-4.8163,-4.8174,-4.8181,-4.8118,-4.811,-4.8102,-4.8089,-4.8178,-4.8178,-4.8243,-4.8244,-4.8244]},{"header":{"parameterUnit":"m.s-1","parameterCategory":1,"la1":30.2991,"la2":30.254,"lo1":-89.0895,"lo2":-89.0444,"dy":0.0017,"dx":0.0017,"nx":28,"ny":28,"refTime":"2025-03-28T03:00:00:Z","depth":0,"parameterNumber":3,"parameterNumberName":"V-component_of_WINDS"},"data":[0,0,0,0,0,0,0,0,0,0,0,0,0,0,0,0,0,0,0,0,0,0,0,0,0,0,0,0,0,0,0,0,0,0,0,0,0,0,0,0,0,0,0,0,0,0,0,0,0,0,0,0,0,0,0,0,0,0,4.6053,4.6055,0,4.6169,4.6171,4.6172,4.6177,4.6175,4.6174,4.6172,4.6287,4.6291,4.6295,0,0,0,0,0,0,0,0,0,0,0,0,0,4.5833,4.5837,4.6053,4.6055,4.6056,4.6169,4.6171,4.6172,4.6177,4.6175,4.6173,4.6172,4.6285,4.6291,4.6296,0,0,0,0,0,0,0,0,0,0,0,0,0,4.5937,4.5838,4.6053,4.6072,4.6075,4.6169,4.6171,4.6173,4.6177,4.6175,4.6173,4.6171,4.6284,4.629,4.6297,4.6378,0,0,4.6316,4.6319,0,0,0,0,0,0,0,0,4.5931,4.5945,4.6068,4.6071,4.6074,4.6157,4.6135,4.6241,4.6178,4.6138,4.6172,4.617,4.6245,4.6254,4.6281,4.6383,4.6388,4.6317,4.6321,4.6324,4.6325,0,0,0,0,0,0,0,4.5924,4.594,4.6099,4.607,4.6074,4.6074,4.6087,4.6155,4.6201,4.6141,4.6142,4.6156,4.6246,4.6274,4.6283,4.639,4.6317,4.6323,4.6327,4.6329,4.6568,4.657,0,0,0,0,0,0,4.5913,4.5934,4.6095,4.6103,4.5996,4.608,4.6094,4.6132,4.6201,4.6209,4.6158,4.6156,4.6264,4.6276,4.6287,4.639,4.6324,4.633,4.6333,4.6566,4.6569,4.6571,0,0,0,0,0,0,4.5909,4.5928,4.6091,4.6019,4.6039,4.6086,4.6129,4.6135,4.6164,4.6213,4.6221,4.6178,4.6263,4.6278,4.6356,4.6393,4.6333,4.6339,4.6563,4.6566,4.657,4.6593,0,0,0,0,0,0,4.5902,4.5926,4.5958,4.6019,4.6043,4.6159,4.6131,4.6139,4.6175,4.6174,4.6234,4.6242,4.6263,4.6347,4.6363,4.6401,4.6344,4.656,4.6564,4.6569,4.6589,4.6597,4.6604,0,0,0,0,0,4.5894,4.5958,4.5959,4.5979,4.6084,4.6161,4.6174,4.6198,4.6178,4.6211,4.6243,4.624,4.6387,4.6355,4.6373,4.6414,4.6557,4.6563,4.6568,4.6586,4.6595,4.6604,0,0,0,0,0,0,4.5897,4.5966,4.5968,4.6054,4.6102,4.6161,4.6203,4.6206,4.6259,4.6256,4.6281,4.6295,4.6373,4.6401,4.6364,4.6498,4.647,4.6479,4.6477,4.6486,4.6493,4.6485,4.6349,0,0,0,0,0,4.5908,4.5966,4.6022,4.6092,4.6116,4.6156,4.6189,4.6204,4.6254,4.6273,4.6311,4.6358,4.6415,4.6452,4.6507,4.6593,4.6607,4.663,4.6637,4.6643,4.6651,4.6702,4.6713,4.6589,4.6589,4.6589,0,0,4.593,4.5975,4.601,4.6094,4.6133,4.6192,4.6172,4.6234,4.6278,4.6282,4.636,4.6389,4.6443,4.6527,4.6565,4.6553,4.6689,4.665,4.6655,4.666,4.6709,4.672,4.6731,4.6593,4.6592,4.6592,0,0,4.6002,4.6041,4.6105,4.6145,4.6205,4.6231,4.6246,4.6306,4.6327,4.6405,4.641,4.6462,4.6559,4.6599,4.6631,4.6721,4.6722,4.6738,4.6776,4.6825,4.6835,4.6844,4.6878,4.6889,4.6746,4.6746,4.6746,0,4.6022,4.6112,4.6137,4.6201,4.6239,4.6247,4.6313,4.6349,4.6423,4.6449,4.6434,4.6558,4.6595,4.6689,4.6711,4.6737,4.6756,4.6732,4.6832,4.6841,4.6849,4.6882,4.6895,4.6747,4.6747,4.6747,4.6747,0,4.6135,4.6198,4.6242,4.6316,4.6358,4.6422,4.6457,4.6497,4.6508,4.6536,4.6616,4.6661,4.6727,4.675,4.676,4.6846,4.6837,4.6826,4.6799,4.6863,4.6894,4.6906,4.675,4.6749,4.6749,4.6748,0,0,4.6211,4.63,4.6317,4.6352,4.6419,4.6467,4.6532,4.6598,4.6633,4.6684,4.6739,4.6823,4.6814,4.6852,4.6866,4.6909,4.698,4.6894,4.6895,4.691,4.708,4.7089,4.7103,4.698,4.6983,4.6985,4.7077,0,4.6292,4.6409,4.6435,4.6536,4.6595,4.6605,4.6662,4.6709,4.6737,4.679,4.682,4.688,4.6863,4.6887,4.6929,4.6962,4.7015,4.6956,4.7033,4.7035,4.7021,4.7119,4.7128,4.7213,4.7089,4.7091,4.7092,0,4.6401,4.6458,4.6566,4.6629,4.6654,4.6705,4.6769,4.682,4.6874,4.6892,4.6935,4.6946,4.7014,4.6983,4.7077,4.7037,4.707,4.7091,4.7095,4.7104,4.7069,4.7133,4.724,4.7253,4.7111,4.711,4.7108,0,4.6449,4.6552,4.6631,4.666,4.6734,4.677,4.6802,4.6855,4.6894,4.6949,4.6975,4.7037,4.7071,4.7118,4.7146,4.712,4.7239,4.7209,4.7256,4.7256,4.7281,4.728,4.7397,4.73,4.7299,4.7299,4.7299,0,4.6538,4.6604,4.6653,4.6702,4.6777,4.6805,4.6878,4.691,4.6957,4.7012,4.7023,4.7074,4.7106,4.7162,4.7183,4.726,4.7274,4.7291,4.7296,4.7291,4.7289,4.7314,4.7309,4.7303,4.7302,4.7301,4.7301,0,4.6604,4.664,4.6726,4.6791,4.6808,4.6861,4.6915,4.6963,4.6991,4.7061,4.7079,4.7123,4.719,4.7222,4.7303,4.7318,4.7405,4.7405,4.7387,4.739,4.7435,4.7432,4.7574,4.7595,4.7482,4.7483,4.7484,0,4.6659,4.671,4.6781,4.682,4.6854,4.6915,4.6956,4.6986,4.7028,4.7096,4.7135,4.7202,4.7258,4.7363,4.7403,4.7466,4.7469,4.7514,4.7478,4.7472,4.7472,4.7469,4.7476,4.7521,4.7522,4.7523,4.7524,0,4.6754,4.6769,4.6829,4.6895,4.6944,4.6997,4.7049,4.708,4.7118,4.7165,4.7234,4.7278,4.7363,4.743,4.7496,4.7528,4.7533,4.7535,4.755,4.7546,4.7534,4.7543,4.7407,4.7532,4.7531,4.753,4.753,4.753,4.6817,4.6865,4.6923,4.6989,4.7032,4.7082,4.713,4.7166,4.7225,4.7298,4.7312,4.7386,4.7441,4.753,4.7565,4.7623,4.7613,4.7633,4.7639,4.7644,4.7648,4.7524,4.7635,4.7635,4.7635,4.7634,4.7634,0,4.6915,4.6953,4.7014,4.7088,4.7141,4.7142,4.7201,4.7244,4.731,4.7361,4.7417,4.7497,4.7563,4.7608,4.7675,4.7713,4.7717,4.773,4.7728,4.7736,4.7652,4.7634,4.7725,4.7725,4.7725,4.7725,4.7725,4.7725,4.6972,4.7053,4.7076,4.7179,4.7217,4.7291,4.7325,4.7371,4.7412,4.7503,4.7558,4.7588,4.7637,4.7708,4.7769,4.778,4.7805,4.7818,4.783,4.7751,4.7741,4.7732,4.7716,4.7823,4.7823,4.7909,4.791,4.7911]}]]